Location: Milo
(50.5667°N, 112.8833°W)
Time: 02:08:40
(UTC+00:00)

ISS - Pass Details

Date: 07 December 2021
Orbit: 413 x 422 km, 51.6° (Epoch: 22 January)

Event Time Altitude Azimuth Distance (km) Brightness Sun altitude
Rises 00:35:47 0° 286° (WNW) 2,387 1.0 -10.2°
Reaches altitude 10° 00:37:58 10° 279° (W) 1,517 0.0 -10.5°
Maximum altitude 00:41:12 41° 208° (SSW) 631 -2.4 -11.0°
Drops below altitude 10° 00:44:24 10° 137° (SE) 1,505 -1.2 -11.5°
Enters shadow 00:46:20 - 131° (SE) 2,274 -0.3 -11.8°
